TimeMST,TemperatureF,Dew PointF,Humidity,Sea Level PressureIn,VisibilityMPH,Wind Direction,Wind SpeedMPH,Gust SpeedMPH,PrecipitationIn,Events,Conditions,WindDirDegrees,DateUTC
12:53 AM,16.0,8.1,71,30.14,10.0,Calm,Calm,-,N/A,,Clear,0,2013-02-13 07:53:00
1:53 AM,18.0,9.0,68,30.09,10.0,South,11.5,-,N/A,,Clear,170,2013-02-13 08:53:00
2:53 AM,12.0,7.0,80,30.12,10.0,SSW,6.9,-,N/A,,Clear,200,2013-02-13 09:53:00
3:53 AM,12.9,8.1,81,30.10,10.0,South,10.4,-,N/A,,Clear,180,2013-02-13 10:53:00
5:53 AM,9.0,5.0,84,30.14,10.0,Calm,Calm,-,N/A,,Clear,0,2013-02-13 12:53:00
6:53 AM,10.9,6.1,81,30.14,10.0,SSW,3.5,-,N/A,,Clear,200,2013-02-13 13:53:00
7:53 AM,12.0,7.0,80,30.13,10.0,Variable,3.5,-,N/A,,Clear,0,2013-02-13 14:53:00
8:53 AM,12.9,7.0,77,30.12,10.0,Calm,Calm,-,N/A,,Clear,0,2013-02-13 15:53:00
9:53 AM,19.0,12.0,74,30.11,10.0,SSW,4.6,-,N/A,,Clear,210,2013-02-13 16:53:00
10:53 AM,27.0,15.1,61,30.10,10.0,Calm,Calm,-,N/A,,Clear,0,2013-02-13 17:53:00
11:53 AM,32.0,16.0,52,30.06,10.0,Calm,Calm,-,N/A,,Clear,0,2013-02-13 18:53:00
12:53 PM,32.0,17.1,54,30.04,10.0,Calm,Calm,-,N/A,,Clear,0,2013-02-13 19:53:00
1:53 PM,34.0,19.9,56,30.03,10.0,NE,5.8,-,N/A,,Scattered Clouds,40,2013-02-13 20:53:00
2:53 PM,34.0,21.9,61,30.05,10.0,NE,8.1,-,N/A,,Mostly Cloudy,50,2013-02-13 21:53:00
3:53 PM,32.0,21.9,66,30.07,10.0,North,3.5,-,N/A,,Scattered Clouds,10,2013-02-13 22:53:00
4:53 PM,32.0,21.9,66,30.11,10.0,NE,3.5,-,N/A,,Scattered Clouds,40,2013-02-13 23:53:00
5:53 PM,28.9,21.0,72,30.13,10.0,SE,3.5,-,N/A,,Overcast,130,2013-02-14 00:53:00
6:53 PM,24.1,18.0,77,30.15,10.0,Calm,Calm,-,N/A,,Mostly Cloudy,0,2013-02-14 01:53:00
7:53 PM,28.9,21.0,72,30.16,10.0,Calm,Calm,-,N/A,,Overcast,0,2013-02-14 02:53:00
8:53 PM,27.0,21.9,81,30.17,10.0,SSW,4.6,-,N/A,,Overcast,200,2013-02-14 03:53:00
9:53 PM,28.0,21.9,78,30.15,10.0,SW,4.6,-,N/A,,Overcast,220,2013-02-14 04:53:00
10:53 PM,28.9,24.1,82,30.15,10.0,SSW,3.5,-,N/A,,Overcast,200,2013-02-14 05:53:00
11:30 PM,28.4,24.8,86,30.04,10.0,Calm,Calm,-,N/A,,Overcast,0,2013-02-14 06:30:00
11:53 PM,30.0,25.0,82,30.14,10.0,WSW,3.5,-,N/A,,Overcast,240,2013-02-14 06:53:00